STARLINK-2237, 48583

Orbit data source: Space-Track

STARLINK-2237, 48583 is a payload satellite owned by SpaceX/Seattle (US) in LEO that was launched on Sat, 15 May 2021 UTC via an FALCON 9 launch vehicle from the Air Force Eastern Test Range (AFETR). Payload-class satellites include a variety of spacecraft equipped with specific instruments for various scientific and technological missions. These include communications satellites like Starlink; space stations such as the ISS; scientific satellites like the Hubble; Earth observation satellites from companies like Planet Labs, Umbra, and HawkEye 360; GPS; miniature CubeSats for education and research; and military/defense satellites.

Loading next visibility...
Identifier
48583, 2021-041AG
Orbit
LEO
Country
Flag of USUS
Related business
Manufacturer
SpaceX/Seattle
Mission
Operational Commercial Communications
Bus & Motor
STARLINK, Unknown motor
Mass
260 kg wet, ~248 kg dry
Launch date (UTC)
2021-05-15 (5 years ago)
Launch vehicle
FALCON 9
Launch site
Air Force Eastern Test Range (AFETR)
Object type
Payload
Rocket body
Debris
Shape & HBR
Box + 1 Pan, 10.1 m
Radar Cross Section
13.562 m², Large (>1 m²)

Expand to show TLE details & history
Last TLE update: 22 hours ago

TLE from 22 hours ago
0 STARLINK-2237
1 48583U 21041AG  25348.77215372  .00000646  00000-0  62295-4 0  9996
2 48583  53.0535 162.8245 0001339  92.2303 267.8840 15.06396186252261
Epoch: 2025-12-14T18:31Z
TLE epoch observation values (Epoch: 2025-12-14T18:31:54.081Z)
Latitude
0.00004°
Longitude
161.16891°
Altitude
548.137 km
Speed
7.589 km/s
True Right ascension
10h 51m 17s
True Declination
0° 00' 00"
Sunlit
Object was in daylight at epoch
Visualization orbit readout
Latitude
Unknown
Longitude
Unknown
Altitude
Unknown
Speed
Unknown
Apparent Right ascension
Unknown
Apparent Declination
Unknown
Sunlit
N/A
Visualization observer readout
Local Sidereal Time
15:11:06
Azimuth
Unknown
Elevation
Unknown
Doppler factor
Unknown
Orbital elements
Apogee altitude
548.421 km
Perigee altitude
546.567 km
Semi-major axis
6,925.631 km
Eccentricity
0.00013
Inclination
53.0535°
RAAN
162.8245°
Arg. of periapsis
92.2303°
True anomaly
267.86867°
Mean anomaly
267.884°
Eccentric anomaly
267.87633°
Mean motion
3.76577 °/min
Orbital period
95.6 mins
BSTAR
0.000062295
Loading maneuver chart data...
Computing Atmospheric mass density...
Loading historical data...
Loading historical data...
Loading historical data...
Loading historical data...
Loading historical data...
Loading historical data...
Loading historical data...

Documentation

Showing up to 5 results
|